User: anonymous   Login
Location: Kaikalui
(16.5250°N, 81.1500°E)
Time: 01:51:37
(UTC+00:00)
Language:

Cosmos 2333 Rocket - Orbit

View from above orbital plane
View from above orbital plane
View from above satellite
View from above satellite

Ground track
Ground track

The orbit is defined by the following mean orbital elements,

1 24298U          26158.75398006 +.00000000 +00000-0 +98419-4 0 00003
2 24298  70.7634 344.6138 0014653 351.2685   8.8177 14.12442838    00
Epoch (UTC): 07 June 2026 18:05:43
Eccentricity: 0.0014653
inclination: 70.7634°
perigee height: 840 km
apogee height: 862 km
right ascension of ascending node: 344.6138°
argument of perigee: 351.2685°
revolutions per day: 14.12442838
mean anomaly at epoch: 8.8177°

The dashed part of the orbit path shows where the satellite is in the earth's shadow,  

DLR